Regional Weather Roundup
Issued by NWS Midland/Odessa, TX

Skip options and go directly to product.
Home | Oldest Version | Previous Version | Current Version | All | Text Only | Save Text | Print | Product List | Glossary On

Skip product version selection by date and time.   
954
ASUS44 KMAF 280410
RWRMAF
MIDLAND AREA WEATHER ROUNDUP
NATIONAL WEATHER SERVICE MIDLAND TX
1100 PM CDT SUN JUL 27 2014

...IN SOUTHWEST TEXAS AND SOUTHEAST NEW MEXICO...

CITY           SKY/WX    TMP DP  RH WIND       PRES   REMARKS
ALPINE         MOCLDY    82  57  42 S13G18    30.24R
ANDREWS        FAIR      88  57  34 SE6       30.12R
ARTESIA        CLEAR     90  52  27 E8        30.11R
BIG SPRING     CLEAR     92  56  29 E9        30.11R
CARLSBAD       CLOUDY    92  51  24 E12       30.07R
DRYDEN           N/A     91  55  29 E9        30.04R
FORT STOCKTON  PTCLDY    86  58  38 SE13      30.10R
GUAD PASS      MOCLDY    82  53  36 E16         N/A
HOBBS          PTCLDY    84  54  34 E7        30.15R
MARFA          PTCLDY    79  55  44 E8        30.24R
MIDLAND AIRPK  PTCLDY    91  56  30 SE9       30.10R
MIDLAND INTL   PTCLDY    90  59  35 SE12      30.09R
ODESSA         PTCLDY    90  57  32 SE12      30.10R
PECOS          MOCLDY    89  58  34 SE17      30.05R
PRESIDIO       FAIR      92  59  32 E10G16    30.03R
SEMINOLE       CLEAR     86  52  31 SE7       30.14R
SNYDER         CLEAR     87  57  35 SE7       30.10R
WINK           MOCLDY    92  60  34 S17G28    30.06R
$$
...OTHER STATIONS IN TEXAS...

CITY           SKY/WX    TMP DP  RH WIND       PRES   REMARKS
ABILENE        CLEAR     87  61  41 SE9       30.06R
AMARILLO       PTCLDY    78  56  46 E21       30.25R
AUSTIN         CLEAR     85  68  56 S9        30.04R
BROWNSVILLE    CLEAR     82  77  84 SE12      30.04R
CORPUS CHRISTI CLEAR     81  75  82 SE10      30.04R
DALLAS FTW     CLEAR     92  66  42 S12       30.00R
DEL RIO        CLEAR     92  63  38 E10       29.97R
EL PASO        CLOUDY    89  52  28 W13       30.11R
HOUSTON INT    PTCLDY    84  75  74 S7        30.06R
LUBBOCK        PTCLDY    82  55  39 E6        30.15R
SAN ANGELO     CLEAR     88  56  33 SE8       30.05R
SAN ANTONIO    CLEAR     86  68  54 SE17      30.05R
WACO           CLEAR     88  67  49 SE12      30.02R
WICHITA FALLS  NOT AVBL
$$
...OTHER LOCATIONS IN NEW MEXICO...

CITY           SKY/WX    TMP DP  RH WIND       PRES   REMARKS
ALAMAGORDO     PTCLDY    90  45  20 E16G26    30.12R
ALBUQUERQUE    PTCLDY    75  54  47 N12       30.27R
CANNON AFB     PTCLDY    79  57  47 E8        30.24R
CLOVIS         NOT AVBL
HOLLOMAN AFB   PTCLDY    90  44  19 N12       30.10R
ROSWELL        CLEAR     88  50  27 E9        30.13R
RUIDOSO        CLEAR     73  45  35 SE8       30.42R
SANTA FE       CLOUDY    65  55  70 E8        30.39R THUNDER
TRUTH OR CONSE MOCLDY    87  45  23 SW15G23   30.16R
TUCUMCARI      MOCLDY    80  60  50 E17       30.22R
$$

USA.gov is the U.S. government's official web portal to all federal, state and local government web resources and services.